Total_Precipitation_Accumulation
1.49 1.36 1.30 1.29 1.25 1.19 1.08 0.96 0.90 0.91 0.88 0.85 0.75 0.63 0.60 0.59 0.52 0.47 0.48 0.53 0.66 0.98 1.28 1.50 1.62 1.66 1.71 1.74 1.57 1.47 1.34 1.24 1.16 1.16 1.13 1.10 1.04 1.04 1.12 1.22 1.19 1.13 1.09
1.98 1.80 1.68 1.57 1.49 1.42 1.33 1.21 1.11 1.11 1.08 1.01 0.92 0.75 0.67 0.67 0.67 0.63 0.60 0.58 0.59 0.73 1.10 1.41 1.65 1.83 1.93 2.02 1.93 1.65 1.48 1.32 1.22 1.21 1.16 1.13 1.10 1.09 1.10 1.10 1.19 1.22 1.21
2.16 2.10 2.01 1.94 1.85 1.77 1.65 1.53 1.44 1.36 1.30 1.22 1.09 0.97 0.86 0.78 0.76 0.78 0.76 0.70 0.67 0.70 0.93 1.30 1.54 1.76 1.94 2.12 2.21 2.07 1.80 1.53 1.39 1.30 1.24 1.14 1.09 1.11 1.15 1.13 1.14 1.16 1.20
2.27 2.20 2.08 1.95 1.93 2.03 2.03 1.88 1.71 1.59 1.44 1.36 1.27 1.11 0.94 0.87 0.82 0.83 0.86 0.87 0.85 0.76 0.81 1.07 1.35 1.59 1.76 2.02 2.17 2.33 2.30 1.94 1.68 1.51 1.37 1.21 1.13 1.10 1.09 1.12 1.11 1.08 1.10
2.43 2.37 2.25 2.17 2.13 2.02 2.04 2.04 1.91 1.70 1.58 1.50 1.43 1.31 1.12 0.97 0.89 0.87 0.86 0.87 0.91 0.86 0.81 0.89 1.04 1.25 1.46 1.72 1.99 2.29 2.50 2.34 2.01 1.75 1.55 1.39 1.27 1.19 1.15 1.16 1.18 1.15 1.14
2.58 2.49 2.31 2.31 2.40 2.30 2.15 2.03 2.03 1.88 1.67 1.62 1.60 1.52 1.37 1.22 1.12 1.02 0.95 0.94 0.94 0.93 0.92 0.85 0.85 0.92 1.12 1.44 1.76 2.08 2.30 2.40 2.32 2.10 1.86 1.63 1.47 1.40 1.38 1.37 1.35 1.33 1.31
2.71 2.72 2.51 2.36 2.36 2.29 2.18 2.14 2.12 2.16 2.05 1.90 1.95 1.89 1.71 1.51 1.38 1.24 1.14 1.11 1.06 1.03 1.04 1.02 0.96 0.88 0.91 1.13 1.41 1.68 1.93 2.16 2.25 2.18 2.10 1.98 1.79 1.68 1.65 1.63 1.56 1.52 1.52
2.63 2.65 2.68 2.60 2.48 2.38 2.31 2.29 2.30 2.35 2.38 2.33 2.30 2.29 2.17 2.01 1.64 1.34 1.25 1.21 1.15 1.13 1.10 1.08 1.04 0.96 0.88 0.94 1.08 1.27 1.49 1.84 2.10 2.23 2.19 2.12 2.05 1.99 1.97 1.98 1.91 1.83 1.75
2.66 2.55 2.54 2.65 2.63 2.52 2.38 2.32 2.29 2.32 2.38 2.39 2.37 2.50 2.31 1.98 1.63 1.44 1.26 1.17 1.17 1.19 1.16 1.18 1.20 1.15 1.05 0.98 0.96 1.06 1.17 1.44 1.82 2.15 2.33 2.31 2.26 2.26 2.27 2.33 2.35 2.26 2.11
2.72 2.66 2.58 2.58 2.59 2.52 2.38 2.33 2.27 2.25 2.32 2.35 2.34 2.28 2.15 1.83 1.65 1.57 1.41 1.25 1.21 1.22 1.26 1.26 1.27 1.30 1.29 1.22 1.15 1.12 1.11 1.18 1.59 2.02 2.40 2.55 2.60 2.62 2.63 2.62 2.62 2.60 2.46
2.71 2.66 2.61 2.58 2.50 2.41 2.35 2.42 2.35 2.33 2.34 2.32 2.25 2.18 2.19 1.97 1.72 1.65 1.54 1.39 1.36 1.28 1.32 1.40 1.36 1.34 1.34 1.31 1.21 1.20 1.24 1.24 1.53 2.00 2.50 2.74 2.82 2.94 3.04 3.02 2.94 2.86 2.77
2.69 2.60 2.51 2.46 2.41 2.39 2.39 2.42 2.47 2.41 2.38 2.39 2.32 2.20 2.21 2.19 1.97 1.86 1.77 1.55 1.53 1.45 1.34 1.38 1.42 1.38 1.35 1.31 1.26 1.33 1.26 1.26 1.38 1.72 2.29 2.74 2.78 2.85 3.07 3.25 3.22 3.06 2.95
2.41 2.36 2.38 2.34 2.28 2.21 2.24 2.34 2.46 2.46 2.39 2.37 2.34 2.29 2.22 2.14 1.99 1.97 1.99 1.86 1.76 1.69 1.63 1.55 1.47 1.41 1.37 1.36 1.37 1.45 1.32 1.33 1.39 1.55 1.97 2.45 2.58 2.52 2.60 2.91 3.25 3.35 3.33
2.26 2.26 2.26 2.26 2.26 2.23 2.18 2.22 2.31 2.38 2.39 2.31 2.19 2.16 2.14 2.08 2.09 2.10 2.10 2.17 2.16 1.95 1.78 1.67 1.55 1.50 1.48 1.44 1.57 1.69 1.46 1.59 1.60 1.66 1.88 2.15 2.30 2.26 2.24 2.34 2.63 2.95 3.14
2.07 2.10 2.12 2.15 2.20 2.22 2.18 2.18 2.23 2.22 2.24 2.25 2.21 2.13 2.04 1.93 1.96 1.97 1.99 2.10 2.31 2.27 1.93 1.60 1.55 1.63 1.69 1.68 1.81 1.70 1.57 1.81 1.81 1.76 1.82 1.94 2.01 2.05 2.06 2.09 2.16 2.27 2.44
1.92 1.93 1.93 1.94 1.98 2.05 2.09 2.09 2.07 2.04 2.04 2.03 2.04 2.09 2.05 1.93 1.92 1.98 2.06 2.09 2.16 2.24 2.04 1.54 1.40 1.49 1.72 1.87 2.06 1.86 1.75 2.02 1.95 1.84 1.80 1.79 1.78 1.76 1.83 1.88 1.94 2.02 2.06
1.75 1.76 1.73 1.75 1.76 1.79 1.87 1.95 1.93 1.93 1.95 1.91 1.91 1.95 1.97 1.93 1.94 1.98 2.09 2.15 2.19 2.27 2.24 1.78 1.52 1.51 1.65 1.78 1.88 1.81 1.78 1.81 1.78 1.91 1.76 1.64 1.60 1.59 1.61 1.66 1.72 1.79 1.85
1.63 1.67 1.62 1.59 1.59 1.59 1.65 1.72 1.76 1.78 1.82 1.83 1.83 1.87 1.90 1.92 1.95 1.97 2.09 2.15 2.12 2.09 2.11 1.98 1.69 1.56 1.54 1.55 1.61 1.66 1.66 1.63 1.60 1.78 1.71 1.60 1.50 1.50 1.53 1.56 1.58 1.63 1.72
1.51 1.53 1.56 1.50 1.48 1.48 1.55 1.59 1.59 1.62 1.66 1.68 1.70 1.75 1.75 1.81 1.88 1.88 1.96 2.05 2.03 2.00 1.98 1.90 1.66 1.46 1.43 1.43 1.53 1.62 1.62 1.55 1.47 1.58 1.60 1.59 1.54 1.50 1.50 1.46 1.47 1.49 1.51
1.34 1.36 1.42 1.40 1.35 1.37 1.44 1.51 1.57 1.59 1.57 1.57 1.59 1.65 1.70 1.74 1.75 1.78 1.88 1.94 1.95 1.99 2.00 1.97 1.82 1.59 1.45 1.40 1.45 1.54 1.61 1.55 1.45 1.40 1.55 1.54 1.56 1.55 1.52 1.39 1.29 1.28 1.27
1.16 1.14 1.19 1.24 1.27 1.29 1.36 1.42 1.50 1.56 1.57 1.56 1.57 1.61 1.69 1.88 1.93 1.90 1.91 1.89 1.92 2.02 2.04 2.01 1.86 1.69 1.51 1.42 1.44 1.36 1.40 1.47 1.50 1.45 1.45 1.42 1.41 1.40 1.42 1.46 1.42 1.35 1.35
1.08 1.09 1.11 1.11 1.15 1.22 1.52 1.59 1.54 1.55 1.60 1.61 1.59 1.55 1.60 1.77 1.76 1.81 1.85 1.87 1.94 2.06 2.11 2.03 1.82 1.57 1.29 1.13 1.15 1.26 1.36 1.53 1.63 1.42 1.40 1.47 1.39 1.46 1.39 1.37 1.50 1.45 1.42
1.05 1.12 1.15 1.16 1.17 1.31 1.59 1.63 1.73 1.64 1.60 1.57 1.53 1.48 1.44 1.41 1.50 1.36 1.48 1.67 1.75 1.78 1.74 1.70 1.68 1.38 1.18 1.06 1.18 1.37 1.41 1.41 1.30 1.17 1.35 1.63 1.53 1.52 1.39 1.40 1.55 1.46 1.45
1.14 1.26 1.33 1.36 1.39 1.47 1.60 1.56 1.65 1.50 1.45 1.40 1.32 1.30 1.26 1.20 1.21 1.27 1.33 1.45 1.37 1.34 1.34 1.25 1.22 1.13 1.11 1.15 1.31 1.51 1.60 1.65 1.47 1.34 1.40 1.65 1.52 1.46 1.34 1.35 1.52 1.48 1.49
1.42 1.43 1.45 1.41 1.39 1.41 1.47 1.44 1.47 1.37 1.35 1.27 1.17 1.14 1.15 1.09 1.24 1.45 1.47 1.42 1.28 1.23 1.32 1.38 1.38 1.37 1.48 1.59 1.66 1.88 2.07 2.20 1.96 1.54 1.33 1.37 1.31 1.29 1.29 1.33 1.43 1.56 1.53
1.37 1.38 1.39 1.38 1.31 1.25 1.31 1.30 1.31 1.23 1.20 1.10 1.06 1.05 1.14 1.13 1.33 1.52 1.48 1.43 1.33 1.12 1.12 1.25 1.32 1.33 1.34 1.44 1.65 1.66 1.79 2.14 1.96 1.59 1.13 1.14 1.19 1.32 1.64 1.37 1.24 1.32 1.47